[[{"header":{"parameterUnit":"m.s-1","parameterCategory":1,"la1":30.2991,"la2":30.254,"lo1":-89.0895,"lo2":-89.0444,"dy":0.0017,"dx":0.0017,"nx":28,"ny":28,"refTime":"2025-06-22T21:00:00:Z","depth":0,"parameterNumber":2,"parameterNumberName":"U-component_of_WINDS"},"data":[0,0,0,0,0,0,0,0,0,0,0,0,0,0,0,0,0,0,0,0,0,0,0,0,0,0,0,0,0,0,0,0,0,0,0,0,0,0,0,0,0,0,0,0,0,0,0,0,0,0,0,0,0,0,0,0,0,0,-2.236,-2.236,0,-2.2341,-2.2341,-2.2341,-2.2276,-2.2274,-2.2273,-2.2271,-2.2254,-2.2255,-2.2256,0,0,0,0,0,0,0,0,0,0,0,0,0,-2.2341,-2.2342,-2.236,-2.236,-2.236,-2.2342,-2.2341,-2.2341,-2.2276,-2.2274,-2.2273,-2.2271,-2.2254,-2.2255,-2.2256,0,0,0,0,0,0,0,0,0,0,0,0,0,-2.2339,-2.2342,-2.236,-2.2325,-2.2322,-2.2342,-2.2341,-2.2341,-2.2276,-2.2274,-2.2272,-2.227,-2.2254,-2.2255,-2.2256,-2.2309,0,0,-2.2261,-2.2261,0,0,0,0,0,0,0,0,-2.2339,-2.2339,-2.233,-2.2327,-2.2324,-2.2309,-2.2328,-2.233,-2.2277,-2.2294,-2.2271,-2.2269,-2.2274,-2.2274,-2.2275,-2.2309,-2.2308,-2.2261,-2.2262,-2.2262,-2.2263,0,0,0,0,0,0,0,-2.2339,-2.234,-2.2353,-2.233,-2.2326,-2.2311,-2.2308,-2.2328,-2.2297,-2.2292,-2.2287,-2.2286,-2.2272,-2.2274,-2.2274,-2.2308,-2.2261,-2.2262,-2.2263,-2.2263,-2.2383,-2.2385,0,0,0,0,0,0,-2.2344,-2.234,-2.2353,-2.2352,-2.2326,-2.2313,-2.231,-2.2316,-2.2296,-2.2291,-2.2288,-2.2283,-2.2273,-2.2273,-2.2274,-2.2334,-2.2262,-2.2263,-2.2264,-2.2381,-2.2384,-2.2386,0,0,0,0,0,0,-2.2344,-2.2346,-2.2354,-2.2345,-2.2345,-2.2315,-2.2323,-2.2317,-2.2318,-2.2293,-2.2287,-2.2296,-2.2271,-2.2272,-2.2301,-2.2332,-2.2264,-2.2265,-2.2378,-2.2382,-2.2385,-2.2455,0,0,0,0,0,0,-2.2343,-2.2346,-2.2365,-2.2346,-2.2346,-2.2381,-2.2325,-2.2318,-2.2321,-2.2314,-2.2299,-2.2294,-2.2269,-2.2299,-2.2302,-2.2333,-2.2266,-2.2375,-2.238,-2.2384,-2.245,-2.2461,-2.247,0,0,0,0,0,-2.2343,-2.2387,-2.2367,-2.2369,-2.2369,-2.2383,-2.2383,-2.2353,-2.2324,-2.2343,-2.2327,-2.2295,-2.2329,-2.2303,-2.2305,-2.2337,-2.2373,-2.2378,-2.2383,-2.2446,-2.2459,-2.247,0,0,0,0,0,0,-2.2411,-2.2383,-2.2361,-2.2399,-2.2394,-2.2372,-2.2396,-2.2368,-2.2372,-2.2365,-2.2329,-2.2326,-2.236,-2.2352,-2.2323,-2.2387,-2.2345,-2.2351,-2.2392,-2.2404,-2.2414,-2.2415,-2.2268,0,0,0,0,0,-2.2431,-2.2444,-2.2419,-2.2455,-2.2454,-2.2426,-2.243,-2.2408,-2.2401,-2.2399,-2.2384,-2.238,-2.2389,-2.2396,-2.2403,-2.2449,-2.2444,-2.2472,-2.2482,-2.249,-2.2496,-2.2519,-2.2531,-2.2403,-2.2403,-2.2403,0,0,-2.2471,-2.2458,-2.2468,-2.2469,-2.2462,-2.2477,-2.2424,-2.2442,-2.2453,-2.2402,-2.2428,-2.2417,-2.241,-2.2447,-2.2463,-2.2441,-2.253,-2.2497,-2.2504,-2.2505,-2.2526,-2.2538,-2.2549,-2.2407,-2.2406,-2.2406,0,0,-2.2553,-2.2544,-2.2572,-2.2567,-2.2557,-2.2538,-2.2545,-2.2527,-2.2518,-2.2543,-2.2505,-2.2518,-2.2535,-2.2531,-2.2531,-2.2611,-2.2581,-2.2614,-2.2667,-2.269,-2.27,-2.2708,-2.2737,-2.2747,-2.262,-2.262,-2.262,0,-2.2604,-2.2624,-2.2591,-2.2611,-2.2613,-2.2566,-2.2596,-2.2592,-2.2585,-2.2588,-2.2563,-2.2584,-2.2575,-2.2611,-2.263,-2.2632,-2.2639,-2.2616,-2.2701,-2.2709,-2.2717,-2.2743,-2.2754,-2.2624,-2.2624,-2.2624,-2.2623,0,-2.2688,-2.2703,-2.2728,-2.2722,-2.2726,-2.2751,-2.2722,-2.273,-2.2707,-2.2691,-2.2718,-2.2706,-2.271,-2.2717,-2.2695,-2.275,-2.2736,-2.2707,-2.2664,-2.2734,-2.2758,-2.2768,-2.263,-2.2629,-2.2628,-2.2627,0,0,-2.2812,-2.2787,-2.2796,-2.2793,-2.2779,-2.279,-2.2813,-2.2816,-2.2824,-2.2821,-2.2839,-2.2855,-2.2827,-2.2828,-2.2805,-2.2825,-2.2889,-2.2793,-2.2793,-2.2811,-2.2948,-2.297,-2.2982,-2.287,-2.2871,-2.2873,-2.2949,0,-2.2889,-2.2925,-2.2896,-2.2939,-2.2952,-2.2908,-2.2928,-2.2922,-2.2907,-2.2917,-2.2901,-2.2912,-2.2875,-2.2875,-2.2893,-2.2878,-2.2916,-2.2872,-2.2887,-2.2887,-2.2889,-2.2995,-2.3018,-2.309,-2.2958,-2.296,-2.2961,0,-2.2983,-2.2984,-2.3027,-2.301,-2.3014,-2.3032,-2.3033,-2.3042,-2.3035,-2.3022,-2.3023,-2.2995,-2.3017,-2.2975,-2.3004,-2.2975,-2.2979,-2.2973,-2.2975,-2.2974,-2.2928,-2.2997,-2.3112,-2.3123,-2.2975,-2.2974,-2.2973,0,-2.3069,-2.308,-2.3107,-2.3106,-2.3086,-2.31,-2.3093,-2.3083,-2.3086,-2.3087,-2.3089,-2.3093,-2.3095,-2.3099,-2.3073,-2.3045,-2.3106,-2.3062,-2.3097,-2.3097,-2.3111,-2.3111,-2.3228,-2.3115,-2.3115,-2.3115,-2.3114,0,-2.3157,-2.3186,-2.3145,-2.3162,-2.3193,-2.3159,-2.319,-2.3179,-2.317,-2.3184,-2.3147,-2.3161,-2.3126,-2.3137,-2.3117,-2.3144,-2.3146,-2.3137,-2.3131,-2.314,-2.3141,-2.3142,-2.3136,-2.3117,-2.3117,-2.3116,-2.3116,0,-2.3258,-2.3232,-2.3259,-2.3238,-2.3233,-2.3257,-2.3239,-2.3254,-2.3237,-2.3255,-2.3257,-2.3231,-2.3242,-2.3216,-2.3223,-2.321,-2.3249,-2.3235,-2.3251,-2.3247,-2.3283,-2.328,-2.3406,-2.342,-2.3298,-2.3299,-2.33,0,-2.3316,-2.3336,-2.3317,-2.3323,-2.3318,-2.3329,-2.3332,-2.33,-2.3305,-2.3298,-2.3314,-2.3321,-2.3325,-2.3345,-2.3326,-2.3332,-2.3318,-2.3362,-2.3319,-2.3327,-2.3318,-2.3317,-2.3319,-2.337,-2.3372,-2.3373,-2.3374,0,-2.3421,-2.3408,-2.3413,-2.3415,-2.342,-2.342,-2.3417,-2.3425,-2.339,-2.3398,-2.3408,-2.3411,-2.3418,-2.3426,-2.3428,-2.3421,-2.3392,-2.3388,-2.3396,-2.3405,-2.3413,-2.3409,-2.3275,-2.3385,-2.3384,-2.3383,-2.3383,-2.3382,-2.3502,-2.3518,-2.3507,-2.3515,-2.3509,-2.3508,-2.352,-2.3505,-2.3512,-2.3515,-2.3495,-2.351,-2.3501,-2.35,-2.3496,-2.3507,-2.3487,-2.3499,-2.3502,-2.3506,-2.3512,-2.3412,-2.3507,-2.3507,-2.3506,-2.3506,-2.3506,0,-2.3606,-2.3596,-2.3604,-2.36,-2.3607,-2.3578,-2.3574,-2.3581,-2.3594,-2.3588,-2.3593,-2.3604,-2.3612,-2.3594,-2.3599,-2.3612,-2.3599,-2.3614,-2.3613,-2.3611,-2.3529,-2.3521,-2.3624,-2.3624,-2.3624,-2.3624,-2.3624,-2.3624,-2.366,-2.3686,-2.3671,-2.3693,-2.3683,-2.3696,-2.3696,-2.3695,-2.369,-2.3704,-2.371,-2.3698,-2.3687,-2.3691,-2.3697,-2.3692,-2.3695,-2.3715,-2.3706,-2.3629,-2.3617,-2.3606,-2.3599,-2.3716,-2.3717,-2.3787,-2.3787,-2.3788]},{"header":{"parameterUnit":"m.s-1","parameterCategory":1,"la1":30.2991,"la2":30.254,"lo1":-89.0895,"lo2":-89.0444,"dy":0.0017,"dx":0.0017,"nx":28,"ny":28,"refTime":"2025-06-22T21:00:00:Z","depth":0,"parameterNumber":3,"parameterNumberName":"V-component_of_WINDS"},"data":[0,0,0,0,0,0,0,0,0,0,0,0,0,0,0,0,0,0,0,0,0,0,0,0,0,0,0,0,0,0,0,0,0,0,0,0,0,0,0,0,0,0,0,0,0,0,0,0,0,0,0,0,0,0,0,0,0,0,2.2925,2.2925,0,2.2891,2.2891,2.2891,2.2838,2.2837,2.2836,2.2835,2.28,2.28,2.28,0,0,0,0,0,0,0,0,0,0,0,0,0,2.2945,2.2945,2.2926,2.2925,2.2925,2.2892,2.2891,2.2891,2.2838,2.2837,2.2836,2.2835,2.28,2.28,2.28,0,0,0,0,0,0,0,0,0,0,0,0,0,2.2926,2.2945,2.2926,2.2895,2.2892,2.2892,2.2891,2.289,2.2839,2.2837,2.2836,2.2834,2.28,2.28,2.28,2.2827,0,0,2.2799,2.2799,0,0,0,0,0,0,0,0,2.2928,2.2926,2.29,2.2897,2.2893,2.2868,2.2885,2.2869,2.2839,2.2859,2.2835,2.2834,2.2824,2.2821,2.2818,2.2825,2.2824,2.2799,2.2799,2.2799,2.2799,0,0,0,0,0,0,0,2.2929,2.2927,2.2912,2.2899,2.2895,2.2882,2.2878,2.2882,2.2849,2.2857,2.2853,2.285,2.2821,2.2818,2.2817,2.2823,2.2799,2.2799,2.2799,2.2799,2.2851,2.2853,0,0,0,0,0,0,2.2935,2.2928,2.2913,2.2911,2.2907,2.2883,2.2878,2.2877,2.2849,2.2844,2.2851,2.2847,2.2819,2.2817,2.2815,2.2845,2.2799,2.2799,2.2799,2.285,2.2852,2.2853,0,0,0,0,0,0,2.2935,2.2934,2.2914,2.2919,2.2915,2.2884,2.2883,2.2877,2.2874,2.2845,2.2839,2.2854,2.2818,2.2816,2.2825,2.2843,2.2799,2.2799,2.2848,2.285,2.2852,2.2904,0,0,0,0,0,0,2.2936,2.2935,2.2945,2.2919,2.2915,2.2924,2.2885,2.2878,2.2874,2.2869,2.2846,2.284,2.2817,2.2825,2.2824,2.2842,2.2799,2.2846,2.2849,2.2852,2.2901,2.2908,2.2914,0,0,0,0,0,2.2937,2.2961,2.2945,2.2944,2.2927,2.2926,2.2923,2.2896,2.2876,2.2885,2.2867,2.2841,2.2842,2.2826,2.2825,2.2843,2.2845,2.2848,2.2851,2.2898,2.2907,2.2914,0,0,0,0,0,0,2.2988,2.2957,2.2939,2.2955,2.2944,2.2917,2.2928,2.2906,2.2899,2.2895,2.2861,2.2856,2.2869,2.2857,2.2841,2.2868,2.2839,2.2842,2.2875,2.2883,2.289,2.2891,2.2799,0,0,0,0,0,2.3002,2.3003,2.2975,2.2992,2.2987,2.2959,2.2957,2.2937,2.2924,2.2918,2.29,2.2888,2.2885,2.2884,2.2879,2.29,2.2893,2.2911,2.2918,2.2924,2.2926,2.2935,2.2943,2.2864,2.2864,2.2864,0,0,2.3029,2.3012,2.3015,2.3002,2.2991,2.2993,2.2955,2.2959,2.296,2.2919,2.2926,2.2912,2.2896,2.2911,2.2916,2.2901,2.2947,2.2928,2.2933,2.2932,2.294,2.2947,2.2954,2.2866,2.2866,2.2865,0,0,2.3079,2.3067,2.3079,2.3068,2.3052,2.3033,2.3036,2.3013,2.3002,2.3009,2.2978,2.2979,2.2975,2.2965,2.2959,2.3007,2.2982,2.3006,2.3041,2.305,2.3056,2.3061,2.3077,2.3083,2.3009,2.301,2.301,0,2.3114,2.3116,2.3088,2.3094,2.3089,2.3053,2.3064,2.3056,2.3039,2.3036,2.302,2.3014,2.3001,2.3012,2.3024,2.3021,2.3023,2.3008,2.3058,2.3063,2.3067,2.3082,2.3088,2.3013,2.3012,2.3012,2.3012,0,2.316,2.3163,2.3174,2.3159,2.3156,2.3165,2.3137,2.3138,2.3119,2.3102,2.3109,2.3092,2.3084,2.3085,2.3067,2.3094,2.3085,2.3064,2.3034,2.3078,2.3091,2.3097,2.3017,2.3016,2.3015,2.3014,0,0,2.324,2.321,2.3214,2.3207,2.3186,2.3187,2.3195,2.3187,2.3187,2.3177,2.3182,2.318,2.316,2.3154,2.3134,2.3142,2.318,2.312,2.3119,2.313,2.3208,2.3223,2.323,2.3165,2.3166,2.3166,2.3209,0,2.3285,2.3295,2.327,2.3287,2.3288,2.3255,2.3261,2.3249,2.3234,2.3233,2.3216,2.3214,2.3189,2.3185,2.3192,2.3174,2.3195,2.3171,2.3168,2.3168,2.3171,2.3237,2.3252,2.3293,2.3214,2.3215,2.3215,0,2.3338,2.333,2.3347,2.3326,2.3326,2.3332,2.3323,2.3322,2.3308,2.3296,2.329,2.3267,2.3272,2.3245,2.3252,2.3236,2.3234,2.3225,2.3226,2.3223,2.3193,2.3234,2.3306,2.3311,2.3223,2.3223,2.3222,0,2.3392,2.3387,2.3396,2.3391,2.3367,2.3372,2.3362,2.3347,2.3344,2.3336,2.3333,2.3327,2.3322,2.3317,2.3293,2.3276,2.3302,2.3273,2.3292,2.3293,2.3297,2.3297,2.3368,2.3299,2.3299,2.3299,2.3299,0,2.3444,2.3455,2.342,2.3426,2.3438,2.341,2.3422,2.3409,2.3396,2.3398,2.3369,2.3372,2.334,2.3339,2.332,2.3328,2.3327,2.3317,2.3311,2.3319,2.332,2.3315,2.3311,2.33,2.33,2.33,2.33,0,2.3506,2.3483,2.3491,2.3468,2.3462,2.3472,2.3452,2.3456,2.3439,2.3443,2.3442,2.3416,2.3413,2.3389,2.3381,2.3368,2.3383,2.3373,2.3388,2.3384,2.3403,2.3401,2.3472,2.348,2.3408,2.3408,2.3409,0,2.3539,2.3547,2.3525,2.3525,2.3516,2.3516,2.3513,2.3486,2.3484,2.3469,2.3474,2.347,2.3464,2.3462,2.3442,2.3436,2.3425,2.345,2.3423,2.343,2.3423,2.3422,2.3423,2.3455,2.3456,2.3457,2.3457,0,2.36,2.3589,2.3586,2.3579,2.3576,2.3569,2.356,2.3562,2.3532,2.3531,2.3528,2.3524,2.3517,2.3512,2.3503,2.3492,2.347,2.3466,2.347,2.3476,2.3484,2.3479,2.3401,2.3464,2.3464,2.3463,2.3463,2.3462,2.3648,2.3653,2.3639,2.3636,2.3627,2.362,2.3622,2.3606,2.3604,2.3595,2.358,2.358,2.3566,2.355,2.3542,2.3541,2.3528,2.3533,2.3534,2.3536,2.3539,2.3486,2.3539,2.3539,2.3539,2.3539,2.3539,0,2.3707,2.3696,2.3694,2.3683,2.3681,2.3661,2.365,2.365,2.365,2.3639,2.3635,2.3631,2.3627,2.3608,2.3601,2.3604,2.3593,2.3603,2.3602,2.3599,2.3552,2.3549,2.3612,2.3612,2.3611,2.3611,2.3611,2.3611,2.3737,2.3745,2.3732,2.3735,2.3724,2.3723,2.3719,2.3712,2.3703,2.3701,2.3697,2.3685,2.367,2.3663,2.3658,2.3652,2.365,2.3663,2.3654,2.361,2.3603,2.3596,2.3593,2.3663,2.3663,2.3701,2.3701,2.3701]}]]